• In Italy
  • List of Countries
  • For 7 days
  • Water Temperature
  • Satellite Maps
  • Weather Map
  • Weather Widgets
  • user-avatar
    Login

    Hourly Weather Belmopan

    Today, 13 December, Wednesday

    Time Temperature Precipitation Wind Pressure Humidity
    00:00 +19°C° 0 mm 1 mps 758 mmHg 87%
    01:00 +18°C° 0 mm 1 mps 758 mmHg 89%
    02:00 +18°C° 0 mm 1 mps 757 mmHg 92%
    03:00 +16°C° 0 mm 1 mps 757 mmHg 94%
    04:00 +16°C° 0 mm 1 mps 757 mmHg 95%
    05:00 +15°C° 0 mm 1 mps 757 mmHg 96%
    06:00 +15°C° 0 mm 1 mps 758 mmHg 96%
    07:00 +18°C° 0 mm 1 mps 758 mmHg 87%
    08:00 +21°C° 0 mm 1 mps 759 mmHg 77%
    09:00 +23°C° 0 mm 1 mps 759 mmHg 67%
    10:00 +25°C° 0 mm 1 mps 759 mmHg 60%
    11:00 +26°C° 0 mm 1 mps 758 mmHg 53%
    12:00 +28°C° 0 mm 1 mps 758 mmHg 47%
    13:00 +28°C° 0 mm 1 mps 757 mmHg 47%
    14:00 +28°C° 0 mm 1 mps 757 mmHg 47%
    15:00 +26°C° 0 mm 0 mps 756 mmHg 47%
    16:00 +23°C° 0 mm 0 mps 756 mmHg 55%
    17:00 +21°C° 0 mm 0 mps 756 mmHg 62%
    18:00 +19°C° 0 mm 0 mps 756 mmHg 70%
    19:00 +20°C° 0 mm 1 mps 756 mmHg 75%
    20:00 +20°C° 0 mm 1 mps 756 mmHg 79%
    21:00 +19°C° 0 mm 1 mps 756 mmHg 84%
    22:00 +18°C° 0 mm 1 mps 756 mmHg 86%
    23:00 +18°C° 0 mm 1 mps 756 mmHg 88%

    Tomorrow, 14 December, Thursday

    Time Temperature Precipitation Wind Pressure Humidity
    00:00 +16°C° 0 mm 0 mps 756 mmHg 90%
    01:00 +15°C° 0 mm 0 mps 755 mmHg 91%
    02:00 +15°C° 0 mm 0 mps 755 mmHg 93%
    03:00 +15°C° 0 mm 0 mps 755 mmHg 94%
    04:00 +14°C° 0 mm 0 mps 755 mmHg 94%
    05:00 +14°C° 0 mm 0 mps 755 mmHg 94%
    06:00 +14°C° 0 mm 0 mps 755 mmHg 94%
    07:00 +17°C° 0 mm 0 mps 755 mmHg 82%
    08:00 +20°C° 0 mm 0 mps 755 mmHg 70%
    09:00 +23°C° 0 mm 0 mps 756 mmHg 57%
    10:00 +26°C° 0 mm 1 mps 755 mmHg 53%
    11:00 +28°C° 0 mm 1 mps 755 mmHg 48%
    12:00 +29°C° 0 mm 2 mps 754 mmHg 43%
    13:00 +29°C° 0 mm 2 mps 754 mmHg 44%
    14:00 +29°C° 0 mm 2 mps 753 mmHg 46%
    15:00 +29°C° 0 mm 2 mps 752 mmHg 47%
    16:00 +27°C° 0 mm 2 mps 752 mmHg 57%
    17:00 +25°C° 0 mm 1 mps 753 mmHg 66%
    18:00 +23°C° 0 mm 1 mps 753 mmHg 76%
    19:00 +22°C° 0 mm 1 mps 753 mmHg 79%
    20:00 +22°C° 0 mm 1 mps 754 mmHg 83%
    21:00 +21°C° 0 mm 1 mps 754 mmHg 87%
    22:00 +21°C° 0 mm 1 mps 754 mmHg 89%
    23:00 +22°C° 0 mm 1 mps 754 mmHg 92%

    Day after tomorrow, 15 December, Friday

    Time Temperature Precipitation Wind Pressure Humidity
    00:00 +22°C° 0 mm 1 mps 754 mmHg 94%
    01:00 +22°C° 0.1 mm 1 mps 753 mmHg 95%
    02:00 +22°C° 0.1 mm 1 mps 753 mmHg 97%
    03:00 +22°C° 0.1 mm 1 mps 752 mmHg 98%
    04:00 +20°C° 0.1 mm 0 mps 753 mmHg 98%
    05:00 +20°C° 0.1 mm 0 mps 753 mmHg 98%
    06:00 +21°C° 0.1 mm 0 mps 753 mmHg 98%
    07:00 +23°C° 0.1 mm 1 mps 753 mmHg 97%
    08:00 +24°C° 0.1 mm 1 mps 754 mmHg 95%
    09:00 +25°C° 0.1 mm 1 mps 754 mmHg 94%
    10:00 +26°C° 0.1 mm 1 mps 754 mmHg 90%
    11:00 +27°C° 0.1 mm 1 mps 754 mmHg 87%
    12:00 +28°C° 0.1 mm 1 mps 753 mmHg 83%
    13:00 +28°C° 0.1 mm 1 mps 753 mmHg 77%
    14:00 +29°C° 0.1 mm 2 mps 752 mmHg 72%
    15:00 +30°C° 0.1 mm 2 mps 752 mmHg 66%
    16:00 +28°C° 0 mm 1 mps 752 mmHg 73%
    17:00 +27°C° 0 mm 1 mps 752 mmHg 81%
    18:00 +25°C° 0 mm 1 mps 752 mmHg 88%
    19:00 +25°C° 0 mm 1 mps 753 mmHg 91%
    20:00 +24°C° 0 mm 1 mps 754 mmHg 93%
    21:00 +24°C° 0 mm 1 mps 754 mmHg 96%
    22:00 +22°C° 0 mm 0 mps 754 mmHg 96%
    23:00 +22°C° 0 mm 0 mps 754 mmHg 97%

    16 December, Saturday

    Time Temperature Precipitation Wind Pressure Humidity
    00:00 +21°C° 0 mm 0 mps 754 mmHg 97%
    01:00 +21°C° 0.1 mm 0 mps 754 mmHg 98%
    02:00 +21°C° 0.1 mm 0 mps 753 mmHg 98%
    03:00 +21°C° 0.1 mm 0 mps 753 mmHg 99%
    04:00 +21°C° 0.1 mm 0 mps 753 mmHg 99%
    05:00 +21°C° 0.1 mm 0 mps 754 mmHg 99%
    06:00 +21°C° 0.1 mm 0 mps 754 mmHg 99%
    07:00 +22°C° 0.1 mm 0 mps 754 mmHg 96%
    08:00 +23°C° 0.1 mm 0 mps 755 mmHg 94%
    09:00 +24°C° 0.1 mm 0 mps 756 mmHg 91%
    10:00 +24°C° 0.6 mm 0 mps 755 mmHg 90%
    11:00 +27°C° 0.6 mm 1 mps 755 mmHg 89%
    12:00 +28°C° 0.6 mm 1 mps 754 mmHg 87%
    13:00 +28°C° 0.6 mm 1 mps 754 mmHg 87%
    14:00 +28°C° 0.6 mm 1 mps 753 mmHg 87%
    15:00 +28°C° 0.6 mm 1 mps 752 mmHg 86%
    16:00 +27°C° 0.2 mm 1 mps 753 mmHg 90%
    17:00 +26°C° 0.2 mm 1 mps 753 mmHg 93%
    18:00 +25°C° 0.2 mm 1 mps 753 mmHg 97%
    19:00 +25°C° 0.1 mm 1 mps 754 mmHg 98%
    20:00 +25°C° 0.1 mm 1 mps 754 mmHg 98%
    21:00 +24°C° 0.1 mm 1 mps 755 mmHg 99%
    22:00 +24°C° 0.2 mm 1 mps 754 mmHg 99%
    23:00 +24°C° 0.2 mm 1 mps 754 mmHg 99%

    17 December, Sunday

    Time Temperature Precipitation Wind Pressure Humidity
    00:00 +22°C° 0.2 mm 0 mps 754 mmHg 99%
    01:00 +22°C° 0.1 mm 0 mps 754 mmHg 99%
    02:00 +22°C° 0.1 mm 0 mps 753 mmHg 99%
    03:00 +22°C° 0.1 mm 0 mps 753 mmHg 99%
    04:00 +22°C° 0.1 mm 0 mps 753 mmHg 99%
    05:00 +22°C° 0.1 mm 0 mps 753 mmHg 99%
    06:00 +24°C° 0.1 mm 1 mps 754 mmHg 99%
    07:00 +25°C° 0.1 mm 1 mps 754 mmHg 96%
    08:00 +26°C° 0.1 mm 1 mps 755 mmHg 93%
    09:00 +27°C° 0.1 mm 2 mps 755 mmHg 90%
    10:00 +28°C° 0.2 mm 2 mps 755 mmHg 82%
    11:00 +30°C° 0.2 mm 3 mps 754 mmHg 74%
    12:00 +31°C° 0.2 mm 3 mps 754 mmHg 66%
    13:00 +31°C° 0.2 mm 3 mps 753 mmHg 65%
    14:00 +31°C° 0.2 mm 3 mps 752 mmHg 65%
    15:00 +31°C° 0.2 mm 3 mps 752 mmHg 64%
    16:00 +29°C° 0 mm 2 mps 752 mmHg 73%
    17:00 +27°C° 0 mm 2 mps 752 mmHg 81%
    18:00 +26°C° 0 mm 1 mps 753 mmHg 89%
    19:00 +25°C° 0 mm 1 mps 753 mmHg 92%
    20:00 +25°C° 0 mm 1 mps 753 mmHg 95%
    21:00 +24°C° 0 mm 1 mps 754 mmHg 99%
    22:00 +24°C° 0.1 mm 1 mps 754 mmHg 99%
    23:00 +24°C° 0.1 mm 1 mps 753 mmHg 99%

    18 December, Monday

    Time Temperature Precipitation Wind Pressure Humidity
    00:00 +25°C° 0.1 mm 1 mps 753 mmHg 99%
    01:00 +25°C° 0.2 mm 1 mps 753 mmHg 99%
    02:00 +25°C° 0.2 mm 1 mps 753 mmHg 99%
    03:00 +24°C° 0.2 mm 1 mps 753 mmHg 99%
    04:00 +24°C° 0.1 mm 1 mps 753 mmHg 99%
    05:00 +24°C° 0.1 mm 1 mps 753 mmHg 99%
    06:00 +24°C° 0.1 mm 1 mps 754 mmHg 99%
    07:00 +25°C° 0.1 mm 1 mps 754 mmHg 95%
    08:00 +26°C° 0.1 mm 2 mps 755 mmHg 92%
    09:00 +28°C° 0.1 mm 2 mps 755 mmHg 88%
    10:00 +28°C° 0.4 mm 2 mps 755 mmHg 83%
    11:00 +29°C° 0.4 mm 2 mps 754 mmHg 78%
    12:00 +30°C° 0.4 mm 3 mps 754 mmHg 73%
    13:00 +29°C° 0.6 mm 3 mps 753 mmHg 77%
    14:00 +29°C° 0.6 mm 2 mps 753 mmHg 80%
    15:00 +28°C° 0.6 mm 2 mps 752 mmHg 84%
    16:00 +27°C° 0.1 mm 2 mps 752 mmHg 87%
    17:00 +26°C° 0.1 mm 2 mps 753 mmHg 89%
    18:00 +26°C° 0.1 mm 1 mps 753 mmHg 92%
    19:00 +25°C° 0 mm 1 mps 753 mmHg 94%
    20:00 +25°C° 0 mm 1 mps 754 mmHg 96%
    21:00 +24°C° 0 mm 1 mps 754 mmHg 99%
    22:00 +24°C° 0 mm 1 mps 754 mmHg 99%
    23:00 +24°C° 0 mm 1 mps 754 mmHg 99%
    Show more